[Iaude] MPEC Y83: 2000 PF5 [a=3.17,e=0.66,i=6.1,H=20.47]

mpec at marsden.cfa.harvard.edu mpec at marsden.cfa.harvard.edu
Mon Dec 25 09:11:23 EST 2023


M.P.E.C. 2023-Y83                             Issued 2023 December 25, 14:09 UT

     The Minor Planet Electronic Circulars contain information on unusual
         minor planets, routine data on comets and natural satellites,
         and occasional editorial announcements.  They are published
    on behalf of Division F of the International Astronomical Union by the
          Minor Planet Center, Smithsonian Astrophysical Observatory,
                          Cambridge, MA 02138, U.S.A.
			  
             Prepared using the Tamkin Foundation Computer Network

                              MPC at CFA.HARVARD.EDU
            URL https://www.minorplanetcenter.net/    ISSN 1523-6714

                                    2000 PF5                                    


                           Revision to MPEC 2000-P30                            

Additional Observations:
     K00P05F  C2023 07 22.59851003 05 55.391+23 24 24.62         22.75GVEY083F51
     K00P05F  C2023 07 22.60261003 05 56.471+23 24 30.03         22.80GVEY083F51
     K00P05F  C2023 07 22.60671803 05 57.535+23 24 35.08         22.96GVEY083F51
     K00P05F  C2023 10 26.59112307 21 53.867+29 03 15.14         23.27GVEY083F52
     K00P05F  C2023 10 26.60096207 21 54.066+29 03 14.28         23.26GVEY083F52
     K00P05F  C2023 10 26.61088407 21 54.266+29 03 13.82         22.88GVEY083F52
     K00P05F  C2023 11 11.52460407 21 53.405+28 47 25.86         23.26GVEY083F52
     K00P05F  C2023 11 11.53812807 21 52.996+28 47 25.33         22.52GVEY083F52
     K00P05F  C2023 11 11.55167607 21 52.590+28 47 24.93         22.50GVEY083F52
     K00P05F  C2023 12 04.62785306 58 14.942+28 36 47.23         22.79GVEY083F52
     K00P05F  C2023 12 04.63366206 58 14.433+28 36 46.86         22.34GVEY083F52
     K00P05F 7C2023 12 19.84039206 33 40.294+28 10 13.93               VEY083Z84
     K00P05F 7C2023 12 19.93988806 33 30.296+28 09 59.77         21.4 GVEY083Z84
     K00P05F 7C2023 12 20.04058206 33 20.074+28 09 44.30         21.4 GVEY083Z84
     K00P05F 7C2023 12 20.14045006 33 09.967+28 09 28.25               VEY083Z84

Observer details:
F51 Pan-STARRS 1, Haleakala.  Observers J. Herman, T. Lowe, P. Minguez, A.
    Schultz, I. Smith.  Measurers K. Chambers, T. de Boer, J. Fairlamb, H.
    Gao, M. Huber, C.-C. Lin, E. Magnier, Y. Ramanjooloo, R. Wainscoat, R.
    Weryk.  1.8-m Ritchey-Chretien + CCD.
F52 Pan-STARRS 2, Haleakala.  Observers J. Herman, T. Lowe, P. Minguez, A.
    Schultz, I. Smith.  Measurers K. Chambers, T. de Boer, J. Fairlamb, H.
    Gao, M. Huber, C.-C. Lin, E. Magnier, Y. Ramanjooloo, R. Wainscoat, R.
    Weryk.  1.8-m Ritchey-Chretien + CCD.
Z84 Calar Alto-Schmidt.  Observers F. Ocana, R. Kresken, M. Micheli, L.
    Conversi.  Measurers F. Ocana, M. Micheli.  0.8-m f/3 Schmidt + CCD.

First and last observations above in comparison with prediction:
Residuals in seconds of arc (or two decimals in degrees), reference and Delta-T
230722 F51 0.55- 0.13-    231220 Z84 0.45- 0.09-    E2023-QF3   -0.85 days

Orbital elements:
2000 PF5                                                 Earth MOID = 0.1113 AU
Epoch 2023 Sept. 13.0 TT = JDT 2460200.5                Veres                   
M   8.87735              (2000.0)            P               Q                  
n   0.17436170     Peri.   53.16156     +0.98442957     +0.14916826             
a   3.1732332      Node   298.08894     -0.17504472     +0.88022402             
e   0.6584297      Incl.    6.05053     +0.01605515     +0.45050472             
P   5.65           H   20.47          G   0.15           U   0                  
Residuals in seconds of arc
000801 704  0.4-  0.4+    000804 704  0.9+  0.6+    000827 848  0.0   1.1+
000801 704  0.0   0.7+    000804 704  0.6+  0.4+    000901 704  0.1-  0.1-
000801 704  0.1+  0.5+    000804 422  0.4+  0.0     000901 704  0.4-  0.2-
000801 704  0.2+  0.6+    000804 611  0.3-  1.4+    000901 704  0.3-  0.3+
000801 704  0.1+  0.7+    000804 611  1.0+  1.3+    000901 704  0.4+  0.0
000801 557  0.2-  0.2-    000805 711  0.7+  0.5-    000901 704  0.1+  0.3-
000801 557  0.1+  0.3-    000805 711  0.4+  0.4-    000901 118  0.6+  0.3+
000801 557  0.1+  0.1-    000805 711  0.5+  0.2-    000901 118  0.0   0.2+
000801 557  0.2-  0.1-    000805 402  0.7-  0.1+    000901 046  0.7-  0.1-
000801 046  0.1+  0.0     000805 402  0.4-  1.0+    000901 046  0.8-  0.3-
000801 046  0.2-  0.3+    000805 402  0.8+  0.6+    000902 739  0.9-  0.6+
000801 046  0.2+  0.2+    000805 402  1.1+  0.1-    000902 739 (1.6-  2.4-)
000801 046  0.2-  0.0     000806 670  0.1+  0.2+    000906 704  0.0   0.4+
000802 808  0.2+  1.6+    000806 670  0.7+  0.1-    000906 704  0.2+  0.0
000802 808  0.2+  1.6-    000806 670  0.3-  0.4+    000906 704  0.5+  0.2-
000802 704  0.0   0.4-    000806 557  0.1-  0.3-    000906 704  0.2-  0.2+
000802 704  0.8+  0.1+    000806 557  0.4+  0.3-    000906 704  0.2-  0.8+
000802 704  0.0   0.3+    000807 474  0.3-  0.0     000908 118  0.1-  0.3+
000802 704  0.4-  0.1-    000807 474  0.2-  0.0     000908 118  0.2-  0.2+
000802 711  0.3+  0.4-    000807 474  0.0   0.0     000921 071  3.6+  1.7+
000802 704  0.0   0.9+    000811 413  0.1+  0.2-    000921 071  1.8+  0.8+
000802 711  0.3+  0.4-    000811 413  0.1+  0.3-    000921 071  1.6-  0.8-
000802 711  0.0   0.6-    000819 046  0.4-  0.4-    000926 704  0.3-  0.0
000802 658  0.2+  0.1-    000819 046  0.4-  0.2+    000926 704  0.6-  0.1+
000802 658  0.2+  0.5+    000819 046  0.1+  0.2+    000926 704  0.0   0.2+
000802 163  0.8-  0.1+    000819 046  0.1-  0.2+    000926 704  0.1-  0.1+
000802 163  0.3+  0.1+    000819 046  0.0   0.1+    000926 704  0.0   0.2+
000802 163  0.2+  0.5+    000820 118  0.3-  0.1-    001002 711  0.7+  0.1-
000802 163  1.2-  0.6-    000820 118  0.7-  0.7-    001002 711  0.8+  0.0
000803 859  0.1+  1.6+    000820 118  0.3-  0.5-    001002 711  0.1+  0.6-
000803 859  0.2-  0.8-    000822 860  0.9+  0.2+    001005 360  0.7-  0.1-
000803 859  0.2-  0.4+    000822 860  0.1+  0.9-    001005 360  0.0   0.3+
000803 704  0.3-  0.2+    000822 860  0.2-  1.4-    001005 360  0.4-  0.3+
000803 704  0.7-  0.0     000823 402  0.7+  0.1-    001006 704  0.2-  0.6+
000803 704  0.4-  0.6+    000823 402  0.4+  0.7+    001006 704  0.2-  0.2+
000803 704  0.1+  0.6+    000823 071 (3.0+  4.1+)   001006 704  0.1+  0.2-
000803 704  0.4+  0.1-    000824 658  0.0   0.1-    001006 704  0.4-  0.2+
000803 711  0.1+  0.1-    000824 658  0.2-  0.3-    001006 704  0.9-  0.5+
000803 711  0.2+  0.2-    000824 360  0.1+  0.2-    230722 F51  0.0   0.1+
000803 711  0.3+  0.1-    000824 360  0.2-  0.0     230722 F51  0.2+  0.1+
000803 854  0.5+  0.5-    000824 360  0.4+  0.4-    230722 F51  0.1+  0.3-
000803 854  0.9-  1.2-    000824 071  1.2-  0.1+    231026 F52  0.0   0.1-
000803 854  1.0+  0.3-    000825 071  0.2-  0.2+    231026 F52  0.3-  0.1-
000803 422  0.0   0.1+    000825 071 (4.2-  4.0+)   231026 F52  0.6-  0.3+
000803 474  0.9-  0.2-    000825 071  0.6-  1.1-    231111 F52  0.1-  0.2+
000803 474  1.0-  0.1-    000825 658  0.2-  0.6-    231111 F52  0.1-  0.1-
000804 704  0.7-  0.7+    000825 658  0.2-  0.3-    231111 F52  0.0   0.2-
000804 704  0.1-  0.6+    000825 658  0.2+  0.1-    231204 F52  0.0   0.0
000804 704  0.6+  0.1-    000825 071  1.2+  1.7+    231204 F52  0.4+  0.1+
000804 704  0.6-  0.1-    000825 071  0.7+  2.1-    231219 Z84  0.1-  0.0
000804 704  0.7+  0.5-    000825 071  0.3+  0.1-    231219 Z84  0.0   0.1-
000804 704  0.2-  0.3+    000827 848  0.2-  0.1-    231220 Z84  0.1+  0.4-
000804 704  0.1-  1.1+    000827 848  0.0   0.4+    231220 Z84  0.4+  0.1-

Ephemeris:
2000 PF5                 a,e,i = 3.17, 0.66, 6                   q = 1.0839
Date    TT    R. A. (2000) Decl.     Delta      r    Elong.  Phase     V
2023 11 25    07 11 02.4 +28 42 41   1.0120  1.8546   136.1    21.6    22.9
...
2023 12 10    06 49 53.4 +28 30 18   1.0411  1.9807   155.7    11.8    22.8
...
2023 12 18    06 36 42.4 +28 14 52   1.0778  2.0474   166.4     6.5    22.7
...
2023 12 24    06 26 55.2 +27 58 37   1.1167  2.0970   173.6     3.0    22.6
2023 12 25    06 25 20.3 +27 55 33   1.1242  2.1053   174.5     2.6    22.6
2023 12 26    06 23 46.6 +27 52 24   1.1319  2.1135   175.2     2.3    22.6
...
2024 01 01    06 14 54.1 +27 31 51   1.1841  2.1627   172.4     3.5    22.8
...
2024 01 09    06 04 47.9 +27 01 39   1.2691  2.2276   162.8     7.5    23.3
...
2024 01 24    05 52 30.2 +26 05 07   1.4717  2.3474   145.1    13.9    24.0

A. U. Tomatic                (C) Copyright 2023 MPC           M.P.E.C. 2023-Y83





More information about the Iaude mailing list